VLO6019 SBSV-FHAW

Flight info

Callsign VLO6019
Flight time 3h 13m
Altitude FL370
Route UTLE1B ARURU 11S033W EMTUP 09S027W 08S024W 08S018W MATHY
Aircraft B703/H-VRDW/C

Departure

Time 2026-05-03 21:44
Airport Deputado Luiz Eduardo Magalhães International Airport (SBSV)

Arrival

Time 2026-05-04 00:58
Airport RAF Ascension Island (FHAW)
Time Latitude Longitude Altitude Speed Heading
2026-05-03 21:33 -12.91322 -38.32941 48 ft 0 kts 166°
2026-05-03 21:37 -12.91292 -38.32949 48 ft 8 kts 166°
2026-05-03 21:37 -12.91258 -38.32986 47 ft 6 kts 85°
2026-05-03 21:37 -12.91259 -38.32997 47 ft 0 kts 85°
2026-05-03 21:39 -12.91234 -38.32929 48 ft 19 kts 70°
2026-05-03 21:40 -12.91199 -38.32783 49 ft 23 kts 78°
2026-05-03 21:40 -12.91168 -38.32624 51 ft 23 kts 78°
2026-05-03 21:40 -12.91077 -38.32501 52 ft 22 kts 58°
2026-05-03 21:40 -12.91038 -38.32348 54 ft 23 kts 78°
2026-05-03 21:41 -12.91006 -38.32189 55 ft 23 kts 79°
2026-05-03 21:41 -12.90973 -38.32026 56 ft 24 kts 78°
2026-05-03 21:41 -12.90939 -38.31858 57 ft 24 kts 77°
2026-05-03 21:41 -12.90904 -38.31683 57 ft 25 kts 79°
2026-05-03 21:42 -12.90865 -38.31502 57 ft 27 kts 78°
2026-05-03 21:42 -12.90828 -38.31311 56 ft 28 kts 78°
2026-05-03 21:42 -12.90788 -38.31111 53 ft 28 kts 78°
2026-05-03 21:42 -12.90750 -38.30936 50 ft 22 kts 65°
2026-05-03 21:43 -12.90642 -38.30909 53 ft 13 kts 346°
2026-05-03 21:43 -12.90608 -38.30952 55 ft 7 kts 258°
2026-05-03 21:43 -12.90646 -38.31138 57 ft 61 kts 258°
2026-05-03 21:43 -12.90788 -38.31836 58 ft 137 kts 258°
2026-05-03 21:44 -12.91012 -38.32990 256 ft 179 kts 257°
2026-05-03 21:44 -12.91208 -38.33985 612 ft 183 kts 252°
2026-05-03 21:44 -12.91870 -38.35005 1091 ft 182 kts 214°
2026-05-03 21:44 -12.92991 -38.35619 1590 ft 184 kts 219°
2026-05-03 21:45 -12.93694 -38.36695 2092 ft 188 kts 257°
2026-05-03 21:45 -12.93565 -38.37968 2565 ft 175 kts 300°
2026-05-03 21:45 -12.92661 -38.38792 3065 ft 186 kts 339°
2026-05-03 21:45 -12.91360 -38.39142 3591 ft 199 kts 346°
2026-05-03 21:46 -12.89988 -38.39443 4097 ft 203 kts 346°
2026-05-03 21:46 -12.88599 -38.39744 4598 ft 204 kts 346°
2026-05-03 21:46 -12.87203 -38.40047 5098 ft 206 kts 346°
2026-05-03 21:46 -12.85794 -38.40352 5601 ft 210 kts 346°
2026-05-03 21:47 -12.84300 -38.40676 6125 ft 225 kts 347°
2026-05-03 21:47 -12.82714 -38.41019 6645 ft 240 kts 347°
2026-05-03 21:47 -12.81024 -38.41384 7163 ft 256 kts 347°
2026-05-03 21:47 -12.79232 -38.41771 7678 ft 270 kts 347°
2026-05-03 21:48 -12.77337 -38.42179 8193 ft 284 kts 347°
2026-05-03 21:48 -12.75352 -38.42385 8694 ft 290 kts
2026-05-03 21:48 -12.73436 -38.41738 9195 ft 293 kts 32°
2026-05-03 21:48 -12.71813 -38.40444 9703 ft 295 kts 41°
2026-05-03 21:49 -12.70274 -38.39046 10203 ft 297 kts 42°
2026-05-03 21:49 -12.68728 -38.37625 10705 ft 302 kts 42°
2026-05-03 21:49 -12.67134 -38.36159 11215 ft 315 kts 42°
2026-05-03 21:49 -12.65466 -38.34625 11726 ft 329 kts 42°
2026-05-03 21:50 -12.63736 -38.33033 12236 ft 342 kts 42°
2026-05-03 21:50 -12.61942 -38.31384 12814 ft 351 kts 42°
2026-05-03 21:50 -12.60091 -38.29683 13447 ft 360 kts 42°
2026-05-03 21:50 -12.58209 -38.27953 14077 ft 367 kts 42°
2026-05-03 21:51 -12.56306 -38.26204 14773 ft 370 kts 42°
2026-05-03 21:51 -12.54382 -38.24437 15522 ft 374 kts 42°
2026-05-03 21:51 -12.52441 -38.22654 16273 ft 376 kts 42°
2026-05-03 21:51 -12.50491 -38.20863 17021 ft 379 kts 42°
2026-05-03 21:52 -12.48516 -38.19050 17669 ft 385 kts 42°
2026-05-03 21:52 -12.46502 -38.17200 18300 ft 389 kts 42°
2026-05-03 21:52 -12.44479 -38.15344 18926 ft 393 kts 42°
2026-05-03 21:52 -12.42433 -38.13466 19553 ft 396 kts 42°
2026-05-03 21:53 -12.40382 -38.11584 20176 ft 400 kts 42°
2026-05-03 21:53 -12.38304 -38.09678 20802 ft 403 kts 42°
2026-05-03 21:53 -12.36218 -38.07763 21427 ft 408 kts 42°
2026-05-03 21:53 -12.34094 -38.05815 22247 ft 412 kts 42°
2026-05-03 21:54 -12.31937 -38.03837 23126 ft 415 kts 42°
2026-05-03 21:54 -12.29784 -38.01864 23930 ft 419 kts 42°
2026-05-03 21:54 -12.27829 -38.00072 24605 ft 422 kts 42°
2026-05-03 21:54 -12.26253 -37.98627 25145 ft 423 kts 42°
2026-05-03 21:55 -12.24055 -37.96612 25837 ft 426 kts 42°
2026-05-03 21:55 -12.21843 -37.94585 26411 ft 431 kts 42°
2026-05-03 21:55 -12.19596 -37.92525 26907 ft 436 kts 42°
2026-05-03 21:55 -12.17308 -37.90429 27291 ft 443 kts 42°
2026-05-03 21:56 -12.15002 -37.88316 27669 ft 449 kts 42°
2026-05-03 21:56 -12.12667 -37.86177 28046 ft 453 kts 42°
2026-05-03 21:56 -12.10310 -37.84018 28262 ft 461 kts 42°
2026-05-03 21:56 -12.07896 -37.81806 28302 ft 472 kts 42°
2026-05-03 21:57 -12.02917 -37.77245 28372 ft 490 kts 42°
2026-05-03 21:57 -11.97981 -37.72311 28435 ft 503 kts 53°
2026-05-03 21:58 -11.96113 -37.69294 28506 ft 506 kts 64°
2026-05-03 21:58 -11.94821 -37.65977 28768 ft 505 kts 74°
2026-05-03 21:58 -11.93979 -37.62520 29067 ft 503 kts 78°
2026-05-03 21:58 -11.93263 -37.59040 29313 ft 503 kts 79°
2026-05-03 21:59 -11.92575 -37.55557 29546 ft 502 kts 79°
2026-05-03 21:59 -11.91888 -37.52055 29767 ft 502 kts 79°
2026-05-03 21:59 -11.91207 -37.48578 29971 ft 501 kts 79°
2026-05-03 21:59 -11.90527 -37.45108 30163 ft 501 kts 79°
2026-05-03 22:00 -11.89847 -37.41638 30353 ft 501 kts 79°
2026-05-03 22:00 -11.89167 -37.38169 30545 ft 500 kts 79°
2026-05-03 22:00 -11.88488 -37.34709 30737 ft 500 kts 79°
2026-05-03 22:00 -11.87807 -37.31242 30930 ft 499 kts 79°
2026-05-03 22:01 -11.87123 -37.27763 31123 ft 499 kts 79°
2026-05-03 22:01 -11.86443 -37.24305 31316 ft 499 kts 79°
2026-05-03 22:01 -11.85765 -37.20856 31508 ft 498 kts 79°
2026-05-03 22:01 -11.85085 -37.17407 31700 ft 498 kts 79°
2026-05-03 22:02 -11.84406 -37.13961 31891 ft 497 kts 79°
2026-05-03 22:02 -11.83727 -37.10514 32081 ft 497 kts 79°
2026-05-03 22:02 -11.83048 -37.07072 32269 ft 497 kts 79°
2026-05-03 22:02 -11.82365 -37.03614 32457 ft 496 kts 79°
2026-05-03 22:03 -11.81687 -37.00179 32642 ft 496 kts 79°
2026-05-03 22:03 -11.81007 -36.96742 32826 ft 495 kts 79°
2026-05-03 22:03 -11.80330 -36.93317 33008 ft 495 kts 79°
2026-05-03 22:03 -11.79653 -36.89893 33188 ft 495 kts 79°
2026-05-03 22:04 -11.78974 -36.86464 33367 ft 494 kts 79°
2026-05-03 22:04 -11.78361 -36.83372 33528 ft 494 kts 79°
2026-05-03 22:04 -11.77568 -36.79371 33733 ft 494 kts 79°
2026-05-03 22:05 -11.76891 -36.75962 33906 ft 493 kts 79°
2026-05-03 22:05 -11.76212 -36.72540 34078 ft 493 kts 79°
2026-05-03 22:05 -11.75536 -36.69134 34247 ft 492 kts 79°
2026-05-03 22:05 -11.74859 -36.65731 34415 ft 492 kts 79°
2026-05-03 22:06 -11.74181 -36.62322 34581 ft 492 kts 79°
2026-05-03 22:06 -11.73500 -36.58900 34746 ft 491 kts 79°
2026-05-03 22:06 -11.72514 -36.53947 34982 ft 491 kts 79°
2026-05-03 22:07 -11.71838 -36.50555 35141 ft 491 kts 79°
2026-05-03 22:07 -11.71160 -36.47156 35298 ft 490 kts 79°
2026-05-03 22:07 -11.70484 -36.43766 35454 ft 490 kts 79°
2026-05-03 22:07 -11.69806 -36.40372 35607 ft 490 kts 79°
2026-05-03 22:08 -11.69125 -36.36961 35760 ft 489 kts 79°
2026-05-03 22:08 -11.68450 -36.33585 35909 ft 489 kts 79°
2026-05-03 22:08 -11.67772 -36.30199 36071 ft 488 kts 79°
2026-05-03 22:08 -11.67097 -36.26826 36219 ft 488 kts 79°
2026-05-03 22:09 -11.66421 -36.23448 36360 ft 488 kts 79°
2026-05-03 22:09 -11.65745 -36.20075 36500 ft 488 kts 79°
2026-05-03 22:09 -11.65070 -36.16707 36638 ft 487 kts 79°
2026-05-03 22:10 -11.63714 -36.09949 36911 ft 487 kts 79°
2026-05-03 22:10 -11.63038 -36.06583 37044 ft 486 kts 79°
2026-05-03 22:10 -11.62362 -36.03219 37176 ft 486 kts 79°
2026-05-03 22:10 -11.61687 -35.99865 37307 ft 486 kts 79°
2026-05-03 22:11 -11.61011 -35.96503 37435 ft 486 kts 79°
2026-05-03 22:11 -11.60335 -35.93146 37563 ft 485 kts 79°
2026-05-03 22:11 -11.59654 -35.89764 37689 ft 485 kts 79°
2026-05-03 22:11 -11.58979 -35.86418 37813 ft 485 kts 79°
2026-05-03 22:12 -11.58303 -35.83064 37935 ft 485 kts 79°
2026-05-03 22:12 -11.57628 -35.79720 38055 ft 484 kts 79°
2026-05-03 22:12 -11.56953 -35.76375 38173 ft 484 kts 79°
2026-05-03 22:12 -11.56277 -35.73029 38290 ft 484 kts 79°
2026-05-03 22:13 -11.55601 -35.69683 38405 ft 484 kts 79°
2026-05-03 22:13 -11.54240 -35.62957 38488 ft 486 kts 79°
2026-05-03 22:14 -11.52875 -35.56214 38489 ft 490 kts 79°
2026-05-03 22:14 -11.51499 -35.49426 38488 ft 492 kts 79°
2026-05-03 22:15 -11.50111 -35.42586 38488 ft 494 kts 79°
2026-05-03 22:15 -11.48722 -35.35750 38488 ft 496 kts 79°
2026-05-03 22:16 -11.47327 -35.28892 38488 ft 497 kts 79°
2026-05-03 22:16 -11.45929 -35.22026 38488 ft 497 kts 79°
2026-05-03 22:17 -11.44523 -35.15131 38488 ft 498 kts 79°
2026-05-03 22:17 -11.43119 -35.08250 38488 ft 498 kts 79°
2026-05-03 22:18 -11.41712 -35.01364 38478 ft 499 kts 79°
2026-05-03 22:18 -11.40296 -34.94437 38401 ft 500 kts 79°
2026-05-03 22:19 -11.38881 -34.87529 38399 ft 500 kts 79°
2026-05-03 22:19 -11.37466 -34.80625 38398 ft 500 kts 79°
2026-05-03 22:20 -11.36047 -34.73707 38316 ft 501 kts 79°
2026-05-03 22:20 -11.34623 -34.66773 38313 ft 501 kts 79°
2026-05-03 22:21 -11.33203 -34.59868 38313 ft 500 kts 79°
2026-05-03 22:21 -11.31781 -34.52961 38313 ft 500 kts 79°
2026-05-03 22:22 -11.30354 -34.46035 38313 ft 500 kts 79°
2026-05-03 22:22 -11.28933 -34.39144 38314 ft 500 kts 79°
2026-05-03 22:23 -11.27509 -34.32246 38314 ft 500 kts 79°
2026-05-03 22:23 -11.26084 -34.25352 38314 ft 500 kts 79°
2026-05-03 22:24 -11.24652 -34.18432 38314 ft 500 kts 79°
2026-05-03 22:24 -11.23227 -34.11549 38314 ft 500 kts 79°
2026-05-03 22:25 -11.21798 -34.04653 38314 ft 500 kts 79°
2026-05-03 22:25 -11.20363 -33.97738 38314 ft 500 kts 79°
2026-05-03 22:26 -11.18933 -33.90849 38314 ft 500 kts 79°
2026-05-03 22:26 -11.17503 -33.83965 38314 ft 500 kts 79°
2026-05-03 22:27 -11.16070 -33.77076 38314 ft 500 kts 78°
2026-05-03 22:27 -11.14630 -33.70160 38314 ft 500 kts 78°
2026-05-03 22:28 -11.13196 -33.63275 38314 ft 500 kts 78°
2026-05-03 22:28 -11.11760 -33.56384 38314 ft 500 kts 78°
2026-05-03 22:29 -11.10319 -33.49477 38314 ft 500 kts 78°
2026-05-03 22:29 -11.08882 -33.42590 38314 ft 500 kts 78°
2026-05-03 22:30 -11.07444 -33.35702 38314 ft 500 kts 78°
2026-05-03 22:30 -11.06005 -33.28816 38314 ft 500 kts 78°
2026-05-03 22:31 -11.04561 -33.21902 38314 ft 500 kts 78°
2026-05-03 22:31 -11.03124 -33.15020 38314 ft 500 kts 78°
2026-05-03 22:32 -11.01686 -33.08131 38314 ft 500 kts 78°
2026-05-03 22:32 -11.00175 -33.01237 38313 ft 500 kts 75°
2026-05-03 22:33 -10.98065 -32.94523 38314 ft 500 kts 72°
2026-05-03 22:33 -10.95846 -32.87853 38314 ft 500 kts 72°
2026-05-03 22:34 -10.93616 -32.81178 38314 ft 500 kts 72°
2026-05-03 22:34 -10.91375 -32.74477 38314 ft 500 kts 72°
2026-05-03 22:35 -10.89141 -32.67803 38314 ft 501 kts 72°
2026-05-03 22:35 -10.86905 -32.61127 38314 ft 501 kts 72°
2026-05-03 22:36 -10.84664 -32.54438 38314 ft 501 kts 72°
2026-05-03 22:36 -10.82426 -32.47767 38314 ft 501 kts 72°
2026-05-03 22:37 -10.80186 -32.41092 38314 ft 501 kts 72°
2026-05-03 22:37 -10.77946 -32.34422 38314 ft 501 kts 72°
2026-05-03 22:38 -10.75694 -32.27724 38314 ft 501 kts 72°
2026-05-03 22:38 -10.73452 -32.21056 38362 ft 500 kts 72°
2026-05-03 22:39 -10.71213 -32.14405 38391 ft 500 kts 72°
2026-05-03 22:39 -10.68964 -32.07728 38392 ft 500 kts 72°
2026-05-03 22:40 -10.66721 -32.01072 38392 ft 500 kts 72°
2026-05-03 22:40 -10.64473 -31.94407 38392 ft 500 kts 72°
2026-05-03 22:41 -10.62224 -31.87744 38392 ft 501 kts 72°
2026-05-03 22:41 -10.59966 -31.81058 38392 ft 501 kts 71°
2026-05-03 22:42 -10.57714 -31.74394 38392 ft 501 kts 71°
2026-05-03 22:42 -10.55460 -31.67727 38393 ft 501 kts 71°
2026-05-03 22:43 -10.53197 -31.61040 38393 ft 501 kts 71°
2026-05-03 22:43 -10.50936 -31.54363 38393 ft 501 kts 71°
2026-05-03 22:44 -10.48679 -31.47702 38393 ft 501 kts 71°
2026-05-03 22:44 -10.46422 -31.41044 38393 ft 501 kts 71°
2026-05-03 22:45 -10.44153 -31.34355 38393 ft 501 kts 71°
2026-05-03 22:45 -10.41891 -31.27692 38393 ft 501 kts 71°
2026-05-03 22:46 -10.39627 -31.21026 38394 ft 501 kts 71°
2026-05-03 22:46 -10.37356 -31.14342 38394 ft 501 kts 71°
2026-05-03 22:47 -10.35090 -31.07681 38394 ft 501 kts 71°
2026-05-03 22:47 -10.32824 -31.01021 38394 ft 501 kts 71°
2026-05-03 22:48 -10.30557 -30.94361 38394 ft 501 kts 71°
2026-05-03 22:48 -10.28280 -30.87677 38394 ft 501 kts 71°
2026-05-03 22:49 -10.26010 -30.81014 38394 ft 501 kts 71°
2026-05-03 22:49 -10.23739 -30.74356 38394 ft 501 kts 71°
2026-05-03 22:50 -10.21461 -30.67676 38394 ft 501 kts 71°
2026-05-03 22:50 -10.19187 -30.61015 38394 ft 501 kts 71°
2026-05-03 22:51 -10.16915 -30.54359 38394 ft 501 kts 71°
2026-05-03 22:51 -10.14641 -30.47701 38394 ft 501 kts 71°
2026-05-03 22:52 -10.12360 -30.41022 38394 ft 501 kts 71°
2026-05-03 22:52 -10.10086 -30.34368 38394 ft 501 kts 71°
2026-05-03 22:53 -10.07811 -30.27711 38395 ft 501 kts 71°
2026-05-03 22:53 -10.05527 -30.21025 38395 ft 502 kts 71°
2026-05-03 22:54 -10.03256 -30.14373 38395 ft 502 kts 71°
2026-05-03 22:54 -10.01028 -30.07703 38395 ft 501 kts 72°
2026-05-03 22:55 -9.98854 -30.01007 38395 ft 501 kts 72°
2026-05-03 22:55 -9.96678 -29.94293 38395 ft 501 kts 72°
2026-05-03 22:56 -9.94511 -29.87612 38395 ft 502 kts 72°
2026-05-03 22:56 -9.92339 -29.80918 38395 ft 502 kts 72°
2026-05-03 22:57 -9.90160 -29.74209 38395 ft 502 kts 72°
2026-05-03 22:57 -9.87987 -29.67522 38395 ft 502 kts 72°
2026-05-03 22:58 -9.85812 -29.60831 38395 ft 502 kts 72°
2026-05-03 22:58 -9.83635 -29.54142 38395 ft 502 kts 72°
2026-05-03 22:59 -9.81451 -29.47434 38395 ft 502 kts 72°
2026-05-03 22:59 -9.79273 -29.40749 38395 ft 502 kts 72°
2026-05-03 23:00 -9.77094 -29.34066 38395 ft 502 kts 72°
2026-05-03 23:00 -9.74904 -29.27354 38395 ft 502 kts 72°
2026-05-03 23:01 -9.72723 -29.20671 38395 ft 502 kts 72°
2026-05-03 23:01 -9.70538 -29.13983 38395 ft 502 kts 72°
2026-05-03 23:02 -9.68356 -29.07308 38395 ft 502 kts 72°
2026-05-03 23:02 -9.66161 -29.00597 38395 ft 502 kts 72°
2026-05-03 23:03 -9.63972 -28.93910 38395 ft 502 kts 72°
2026-05-03 23:03 -9.61786 -28.87235 38395 ft 502 kts 72°
2026-05-03 23:04 -9.59590 -28.80535 38395 ft 502 kts 72°
2026-05-03 23:04 -9.57398 -28.73848 38395 ft 502 kts 72°
2026-05-03 23:05 -9.55208 -28.67173 38395 ft 502 kts 72°
2026-05-03 23:05 -9.53016 -28.60496 38395 ft 502 kts 72°
2026-05-03 23:06 -9.50814 -28.53794 38395 ft 502 kts 72°
2026-05-03 23:06 -9.48616 -28.47108 38395 ft 502 kts 72°
2026-05-03 23:07 -9.46421 -28.40435 38395 ft 502 kts 72°
2026-05-03 23:07 -9.44218 -28.33738 38395 ft 502 kts 72°
2026-05-03 23:08 -9.42019 -28.27061 38395 ft 502 kts 72°
2026-05-03 23:08 -9.39819 -28.20382 38395 ft 502 kts 72°
2026-05-03 23:09 -9.37618 -28.13707 38395 ft 502 kts 72°
2026-05-03 23:09 -9.35408 -28.07007 38395 ft 502 kts 72°
2026-05-03 23:10 -9.33206 -28.00333 38395 ft 502 kts 72°
2026-05-03 23:10 -9.31003 -27.93662 38395 ft 502 kts 72°
2026-05-03 23:11 -9.28790 -27.86962 38414 ft 502 kts 72°
2026-05-03 23:11 -9.26588 -27.80299 38427 ft 502 kts 72°
2026-05-03 23:12 -9.24384 -27.73634 38428 ft 502 kts 72°
2026-05-03 23:12 -9.22177 -27.66964 38428 ft 502 kts 72°
2026-05-03 23:13 -9.19961 -27.60267 38427 ft 502 kts 72°
2026-05-03 23:13 -9.17753 -27.53597 38427 ft 502 kts 72°
2026-05-03 23:14 -9.15544 -27.46929 38427 ft 502 kts 72°
2026-05-03 23:14 -9.13324 -27.40229 38427 ft 502 kts 72°
2026-05-03 23:15 -9.11114 -27.33561 38427 ft 502 kts 72°
2026-05-03 23:15 -9.08905 -27.26896 38427 ft 502 kts 72°
2026-05-03 23:16 -9.06692 -27.20222 38427 ft 502 kts 72°
2026-05-03 23:16 -9.04473 -27.13526 38427 ft 502 kts 72°
2026-05-03 23:17 -9.02262 -27.06854 38427 ft 502 kts 72°
2026-05-03 23:17 -9.00058 -27.00184 38427 ft 502 kts 72°
2026-05-03 23:18 -8.97851 -26.93486 38427 ft 502 kts 72°
2026-05-03 23:18 -8.95649 -26.86807 38427 ft 502 kts 72°
2026-05-03 23:19 -8.93450 -26.80138 38427 ft 502 kts 72°
2026-05-03 23:19 -8.91249 -26.73467 38427 ft 502 kts 72°
2026-05-03 23:20 -8.89037 -26.66770 38427 ft 502 kts 72°
2026-05-03 23:20 -8.86833 -26.60100 38427 ft 503 kts 72°
2026-05-03 23:21 -8.84627 -26.53426 38427 ft 503 kts 72°
2026-05-03 23:21 -8.82413 -26.46733 38427 ft 503 kts 72°
2026-05-03 23:22 -8.79100 -26.36725 38427 ft 503 kts 72°
2026-05-03 23:22 -8.76889 -26.30050 38427 ft 503 kts 72°
2026-05-03 23:23 -8.74672 -26.23363 38427 ft 503 kts 72°
2026-05-03 23:23 -8.72460 -26.16695 38427 ft 503 kts 72°
2026-05-03 23:24 -8.70247 -26.10026 38427 ft 503 kts 72°
2026-05-03 23:24 -8.68032 -26.03355 38427 ft 503 kts 72°
2026-05-03 23:25 -8.65809 -25.96664 38427 ft 503 kts 72°
2026-05-03 23:25 -8.63593 -25.89998 38427 ft 503 kts 72°
2026-05-03 23:26 -8.61377 -25.83332 38427 ft 503 kts 72°
2026-05-03 23:26 -8.59151 -25.76645 38427 ft 503 kts 72°
2026-05-03 23:27 -8.56933 -25.69982 38427 ft 503 kts 72°
2026-05-03 23:27 -8.54711 -25.63313 38427 ft 503 kts 72°
2026-05-03 23:28 -8.52489 -25.56647 38427 ft 503 kts 72°
2026-05-03 23:28 -8.50259 -25.49960 38427 ft 503 kts 72°
2026-05-03 23:29 -8.48034 -25.43293 38427 ft 503 kts 72°
2026-05-03 23:29 -8.45811 -25.36635 38427 ft 503 kts 72°
2026-05-03 23:30 -8.43578 -25.29949 38427 ft 503 kts 72°
2026-05-03 23:30 -8.41353 -25.23291 38427 ft 503 kts 72°
2026-05-03 23:31 -8.39124 -25.16625 38427 ft 503 kts 72°
2026-05-03 23:31 -8.36898 -25.09970 38427 ft 503 kts 72°
2026-05-03 23:32 -8.34660 -25.03284 38427 ft 503 kts 72°
2026-05-03 23:32 -8.32428 -24.96618 38427 ft 503 kts 72°
2026-05-03 23:33 -8.30198 -24.89959 38427 ft 503 kts 72°
2026-05-03 23:33 -8.27958 -24.83276 38427 ft 503 kts 72°
2026-05-03 23:34 -8.25726 -24.76620 38427 ft 503 kts 72°
2026-05-03 23:34 -8.23491 -24.69956 38427 ft 503 kts 72°
2026-05-03 23:35 -8.21258 -24.63302 38427 ft 503 kts 72°
2026-05-03 23:35 -8.19014 -24.56615 38427 ft 503 kts 72°
2026-05-03 23:36 -8.16777 -24.49955 38427 ft 503 kts 72°
2026-05-03 23:36 -8.14544 -24.43305 38427 ft 503 kts 72°
2026-05-03 23:37 -8.12298 -24.36621 38427 ft 503 kts 72°
2026-05-03 23:37 -8.10061 -24.29967 38427 ft 503 kts 72°
2026-05-03 23:38 -8.07826 -24.23315 38427 ft 503 kts 72°
2026-05-03 23:38 -8.05588 -24.16655 38427 ft 503 kts 72°
2026-05-03 23:39 -8.03342 -24.09971 38427 ft 503 kts 72°
2026-05-03 23:39 -8.01258 -24.03279 38425 ft 502 kts 79°
2026-05-03 23:40 -8.00652 -23.96314 38428 ft 501 kts 90°
2026-05-03 23:40 -8.00647 -23.89303 38427 ft 501 kts 91°
2026-05-03 23:41 -8.00681 -23.82315 38460 ft 500 kts 91°
2026-05-03 23:41 -8.00717 -23.75327 38461 ft 501 kts 91°
2026-05-03 23:42 -8.00752 -23.68333 38461 ft 501 kts 91°
2026-05-03 23:42 -8.00786 -23.61315 38461 ft 501 kts 91°
2026-05-03 23:43 -8.00819 -23.54318 38462 ft 501 kts 91°
2026-05-03 23:43 -8.00850 -23.47322 38462 ft 501 kts 91°
2026-05-03 23:44 -8.00881 -23.40296 38462 ft 501 kts 91°
2026-05-03 23:44 -8.00910 -23.33290 38462 ft 502 kts 91°
2026-05-03 23:45 -8.00938 -23.26292 38463 ft 502 kts 91°
2026-05-03 23:45 -8.00965 -23.19295 38463 ft 502 kts 91°
2026-05-03 23:46 -8.00991 -23.12266 38463 ft 502 kts 91°
2026-05-03 23:46 -8.01016 -23.05257 38464 ft 502 kts 91°
2026-05-03 23:47 -8.01039 -22.98253 38464 ft 502 kts 91°
2026-05-03 23:47 -8.01062 -22.91229 38464 ft 502 kts 91°
2026-05-03 23:48 -8.01083 -22.84226 38465 ft 502 kts 91°
2026-05-03 23:48 -8.01104 -22.77219 38465 ft 502 kts 91°
2026-05-03 23:49 -8.01123 -22.70222 38466 ft 502 kts 91°
2026-05-03 23:49 -8.01141 -22.63187 38466 ft 502 kts 91°
2026-05-03 23:50 -8.01155 -22.57362 38466 ft 502 kts 91°
2026-05-03 23:50 -8.01173 -22.49183 38467 ft 502 kts 91°
2026-05-03 23:51 -8.01188 -22.42150 38467 ft 502 kts 91°
2026-05-03 23:51 -8.01202 -22.35145 38467 ft 502 kts 91°
2026-05-03 23:52 -8.01214 -22.28138 38468 ft 502 kts 91°
2026-05-03 23:52 -8.01225 -22.21137 38468 ft 502 kts 91°
2026-05-03 23:53 -8.01236 -22.14100 38468 ft 502 kts 91°
2026-05-03 23:53 -8.01245 -22.07098 38469 ft 502 kts 91°
2026-05-03 23:54 -8.01253 -22.00092 38469 ft 502 kts 91°
2026-05-03 23:54 -8.01260 -21.93057 38470 ft 502 kts 91°
2026-05-03 23:55 -8.01265 -21.86052 38470 ft 502 kts 91°
2026-05-03 23:55 -8.01270 -21.79042 38470 ft 502 kts 91°
2026-05-03 23:56 -8.01274 -21.72036 38471 ft 502 kts 91°
2026-05-03 23:56 -8.01276 -21.65004 38471 ft 502 kts 91°
2026-05-03 23:57 -8.01277 -21.57992 38472 ft 502 kts 91°
2026-05-03 23:57 -8.01278 -21.50988 38472 ft 502 kts 91°
2026-05-03 23:58 -8.01277 -21.43953 38472 ft 502 kts 91°
2026-05-03 23:58 -8.01275 -21.36943 38473 ft 502 kts 91°
2026-05-03 23:59 -8.01272 -21.29932 38473 ft 502 kts 91°
2026-05-03 23:59 -8.01267 -21.22923 38474 ft 502 kts 91°
2026-05-04 00:00 -8.01262 -21.15891 38474 ft 502 kts 90°
2026-05-04 00:00 -8.01256 -21.08881 38474 ft 502 kts 90°
2026-05-04 00:01 -8.01248 -21.01872 38475 ft 502 kts 90°
2026-05-04 00:01 -8.01240 -20.94828 38475 ft 502 kts 90°
2026-05-04 00:02 -8.01230 -20.87824 38476 ft 502 kts 90°
2026-05-04 00:02 -8.01220 -20.80810 38476 ft 502 kts 90°
2026-05-04 00:03 -8.01208 -20.73801 38477 ft 502 kts 90°
2026-05-04 00:03 -8.01195 -20.66765 38477 ft 502 kts 90°
2026-05-04 00:04 -8.01181 -20.59750 38478 ft 502 kts 90°
2026-05-04 00:04 -8.01166 -20.52738 38478 ft 502 kts 90°
2026-05-04 00:05 -8.01150 -20.45699 38478 ft 502 kts 90°
2026-05-04 00:05 -8.01133 -20.38683 38479 ft 502 kts 90°
2026-05-04 00:06 -8.01115 -20.31677 38479 ft 502 kts 90°
2026-05-04 00:06 -8.01095 -20.24664 38480 ft 502 kts 90°
2026-05-04 00:07 -8.01075 -20.17622 38480 ft 502 kts 90°
2026-05-04 00:07 -8.01054 -20.10611 38481 ft 502 kts 90°
2026-05-04 00:08 -8.01031 -20.03600 38481 ft 502 kts 90°
2026-05-04 00:08 -8.01008 -19.96557 38482 ft 502 kts 90°
2026-05-04 00:09 -8.00983 -19.89531 38482 ft 502 kts 90°
2026-05-04 00:09 -8.00958 -19.82533 38483 ft 503 kts 90°
2026-05-04 00:10 -8.00931 -19.75511 38483 ft 503 kts 90°
2026-05-04 00:10 -8.00904 -19.68477 38484 ft 503 kts 90°
2026-05-04 00:11 -8.00875 -19.61458 38484 ft 503 kts 90°
2026-05-04 00:11 -8.00846 -19.54441 38485 ft 503 kts 90°
2026-05-04 00:12 -8.00815 -19.47396 38485 ft 503 kts 90°
2026-05-04 00:12 -8.00784 -19.40381 38486 ft 503 kts 90°
2026-05-04 00:13 -8.00751 -19.33365 38486 ft 503 kts 90°
2026-05-04 00:13 -8.00718 -19.26353 38487 ft 503 kts 90°
2026-05-04 00:14 -8.00684 -19.19305 38488 ft 503 kts 90°
2026-05-04 00:14 -8.00648 -19.12291 38488 ft 503 kts 90°
2026-05-04 00:15 -8.00612 -19.05278 38489 ft 503 kts 90°
2026-05-04 00:15 -8.00575 -18.98229 38489 ft 503 kts 90°
2026-05-04 00:16 -8.00537 -18.91214 38490 ft 503 kts 90°
2026-05-04 00:16 -8.00498 -18.84198 38490 ft 503 kts 90°
2026-05-04 00:17 -8.00459 -18.77179 38491 ft 503 kts 90°
2026-05-04 00:17 -8.00418 -18.70133 38492 ft 503 kts 90°
2026-05-04 00:18 -8.00377 -18.63111 38492 ft 503 kts 90°
2026-05-04 00:18 -8.00336 -18.56100 38493 ft 503 kts 90°
2026-05-04 00:19 -8.00293 -18.49048 38493 ft 503 kts 90°
2026-05-04 00:19 -8.00250 -18.42035 38494 ft 503 kts 90°
2026-05-04 00:20 -8.00207 -18.35014 38495 ft 503 kts 90°
2026-05-04 00:20 -8.00163 -18.27994 38495 ft 503 kts 90°
2026-05-04 00:21 -8.00119 -18.20931 38496 ft 503 kts 90°
2026-05-04 00:21 -8.00076 -18.13923 38496 ft 503 kts 90°
2026-05-04 00:22 -8.00034 -18.06901 38497 ft 503 kts 90°
2026-05-04 00:22 -7.99937 -17.99855 38498 ft 503 kts 89°
2026-05-04 00:23 -7.99670 -17.92839 38498 ft 503 kts 88°
2026-05-04 00:23 -7.99384 -17.85821 38499 ft 503 kts 88°
2026-05-04 00:24 -7.99095 -17.78806 38500 ft 503 kts 88°
2026-05-04 00:24 -7.98804 -17.71758 38500 ft 503 kts 88°
2026-05-04 00:25 -7.98512 -17.64734 38501 ft 503 kts 88°
2026-05-04 00:25 -7.98220 -17.57723 38502 ft 503 kts 88°
2026-05-04 00:26 -7.97926 -17.50678 38502 ft 503 kts 88°
2026-05-04 00:26 -7.97631 -17.43655 38503 ft 503 kts 88°
2026-05-04 00:27 -7.97335 -17.36635 38504 ft 503 kts 88°
2026-05-04 00:27 -7.97039 -17.29618 38504 ft 503 kts 88°
2026-05-04 00:28 -7.96740 -17.22563 38505 ft 503 kts 88°
2026-05-04 00:28 -7.96441 -17.15545 38506 ft 503 kts 88°
2026-05-04 00:29 -7.96141 -17.08526 38507 ft 503 kts 88°
2026-05-04 00:29 -7.95839 -17.01477 38507 ft 503 kts 88°
2026-05-04 00:30 -7.95537 -16.94458 38508 ft 504 kts 88°
2026-05-04 00:30 -7.95234 -16.87435 38509 ft 504 kts 88°
2026-05-04 00:31 -7.94930 -16.80416 38510 ft 504 kts 88°
2026-05-04 00:31 -7.94623 -16.73355 38431 ft 505 kts 88°
2026-05-04 00:32 -7.94316 -16.66310 38426 ft 505 kts 88°
2026-05-04 00:32 -7.94008 -16.59281 38426 ft 505 kts 88°
2026-05-04 00:33 -7.93543 -16.48699 38426 ft 504 kts 88°
2026-05-04 00:34 -7.93233 -16.41668 38426 ft 504 kts 88°
2026-05-04 00:34 -7.92922 -16.34654 38423 ft 500 kts 88°
2026-05-04 00:34 -7.92766 -16.31149 37999 ft 506 kts 88°
2026-05-04 00:35 -7.92608 -16.27577 37381 ft 511 kts 88°
2026-05-04 00:35 -7.92450 -16.24027 36760 ft 506 kts 88°
2026-05-04 00:35 -7.92293 -16.20523 36138 ft 499 kts 88°
2026-05-04 00:35 -7.92138 -16.17055 35514 ft 494 kts 88°
2026-05-04 00:36 -7.91985 -16.13634 34894 ft 490 kts 88°
2026-05-04 00:36 -7.91832 -16.10229 34270 ft 486 kts 88°
2026-05-04 00:36 -7.91681 -16.06859 33648 ft 481 kts 88°
2026-05-04 00:36 -7.91530 -16.03497 33021 ft 476 kts 88°
2026-05-04 00:37 -7.91381 -16.00192 32398 ft 472 kts 88°
2026-05-04 00:37 -7.91233 -15.96913 31775 ft 468 kts 88°
2026-05-04 00:37 -7.91086 -15.93668 31152 ft 463 kts 88°
2026-05-04 00:37 -7.90941 -15.90456 30530 ft 459 kts 88°
2026-05-04 00:38 -7.90797 -15.87272 29908 ft 455 kts 88°
2026-05-04 00:38 -7.90654 -15.84115 29285 ft 451 kts 88°
2026-05-04 00:38 -7.90510 -15.80958 28657 ft 446 kts 88°
2026-05-04 00:38 -7.90369 -15.77857 28033 ft 442 kts 88°
2026-05-04 00:39 -7.90230 -15.74792 27412 ft 438 kts 88°
2026-05-04 00:39 -7.90091 -15.71748 26788 ft 434 kts 88°
2026-05-04 00:39 -7.89954 -15.68738 26167 ft 430 kts 88°
2026-05-04 00:39 -7.89818 -15.65749 25543 ft 426 kts 88°
2026-05-04 00:40 -7.89682 -15.62785 24920 ft 422 kts 88°
2026-05-04 00:40 -7.89547 -15.59832 24293 ft 419 kts 88°
2026-05-04 00:40 -7.89414 -15.56929 23670 ft 415 kts 88°
2026-05-04 00:40 -7.89282 -15.54049 23047 ft 411 kts 88°
2026-05-04 00:41 -7.89151 -15.51190 22423 ft 407 kts 88°
2026-05-04 00:41 -7.89022 -15.48384 21805 ft 404 kts 88°
2026-05-04 00:41 -7.88892 -15.45560 21178 ft 400 kts 88°
2026-05-04 00:41 -7.88764 -15.42781 20555 ft 396 kts 88°
2026-05-04 00:42 -7.88637 -15.40009 19928 ft 393 kts 88°
2026-05-04 00:42 -7.88511 -15.37277 19304 ft 389 kts 88°
2026-05-04 00:42 -7.88386 -15.34574 18681 ft 386 kts 88°
2026-05-04 00:42 -7.88262 -15.31894 18058 ft 383 kts 88°
2026-05-04 00:43 -7.88139 -15.29234 17435 ft 379 kts 88°
2026-05-04 00:43 -7.88018 -15.26604 16813 ft 376 kts 88°
2026-05-04 00:43 -7.87897 -15.23988 16188 ft 373 kts 88°
2026-05-04 00:43 -7.87776 -15.21384 15561 ft 369 kts 88°
2026-05-04 00:44 -7.87657 -15.18820 14939 ft 366 kts 88°
2026-05-04 00:44 -7.87539 -15.16277 14316 ft 363 kts 88°
2026-05-04 00:44 -7.87422 -15.13755 13692 ft 360 kts 88°
2026-05-04 00:44 -7.87306 -15.11256 13069 ft 357 kts 88°
2026-05-04 00:45 -7.87192 -15.08794 12677 ft 345 kts 88°
2026-05-04 00:45 -7.87083 -15.06464 12627 ft 324 kts 88°
2026-05-04 00:45 -7.86979 -15.04257 12539 ft 306 kts 88°
2026-05-04 00:45 -7.86880 -15.02148 12177 ft 299 kts 88°
2026-05-04 00:46 -7.86783 -15.00068 11707 ft 297 kts 88°
2026-05-04 00:46 -7.86687 -14.98004 11223 ft 295 kts 88°
2026-05-04 00:46 -7.86592 -14.95948 10738 ft 293 kts 88°
2026-05-04 00:46 -7.86497 -14.93909 10251 ft 291 kts 88°
2026-05-04 00:47 -7.86403 -14.91883 9762 ft 289 kts 88°
2026-05-04 00:47 -7.86309 -14.89859 9267 ft 287 kts 89°
2026-05-04 00:47 -7.86216 -14.87858 8773 ft 285 kts 89°
2026-05-04 00:47 -7.86124 -14.85876 8281 ft 283 kts 89°
2026-05-04 00:48 -7.86032 -14.83903 7790 ft 281 kts 89°
2026-05-04 00:48 -7.85941 -14.81949 7303 ft 280 kts 89°
2026-05-04 00:48 -7.85851 -14.80011 6962 ft 271 kts 89°
2026-05-04 00:48 -7.85766 -14.78217 6956 ft 241 kts 89°
2026-05-04 00:49 -7.85690 -14.76610 6864 ft 218 kts 89°
2026-05-04 00:49 -7.85621 -14.75122 6526 ft 210 kts 89°
2026-05-04 00:49 -7.85553 -14.73661 6099 ft 208 kts 89°
2026-05-04 00:49 -7.85487 -14.72212 5661 ft 207 kts 89°
2026-05-04 00:50 -7.85421 -14.70773 5223 ft 206 kts 89°
2026-05-04 00:50 -7.85355 -14.69341 4787 ft 204 kts 89°
2026-05-04 00:50 -7.85291 -14.67919 4353 ft 203 kts 89°
2026-05-04 00:50 -7.85226 -14.66492 3919 ft 202 kts 89°
2026-05-04 00:51 -7.85162 -14.65085 3491 ft 201 kts 89°
2026-05-04 00:51 -7.85102 -14.63684 3065 ft 200 kts 90°
2026-05-04 00:51 -7.85415 -14.62364 2615 ft 195 kts 117°
2026-05-04 00:51 -7.86014 -14.61145 2204 ft 193 kts 119°
2026-05-04 00:52 -7.86621 -14.59940 2069 ft 194 kts 119°
2026-05-04 00:52 -7.87234 -14.58723 2056 ft 195 kts 119°
2026-05-04 00:52 -7.87855 -14.57491 2055 ft 193 kts 119°
2026-05-04 00:52 -7.88426 -14.56354 2059 ft 172 kts 119°
2026-05-04 00:53 -7.88918 -14.55372 2080 ft 143 kts 119°
2026-05-04 00:53 -7.89332 -14.54547 2039 ft 125 kts 120°
2026-05-04 00:53 -7.89748 -14.53726 2071 ft 135 kts 120°
2026-05-04 00:53 -7.90183 -14.52865 2077 ft 141 kts 120°
2026-05-04 00:54 -7.90625 -14.51990 2066 ft 140 kts 120°
2026-05-04 00:54 -7.91070 -14.51110 2064 ft 140 kts 120°
2026-05-04 00:54 -7.91512 -14.50235 2064 ft 140 kts 120°
2026-05-04 00:54 -7.91953 -14.49363 2064 ft 140 kts 120°
2026-05-04 00:55 -7.92396 -14.48488 2064 ft 140 kts 120°
2026-05-04 00:55 -7.92837 -14.47610 1954 ft 140 kts 119°
2026-05-04 00:55 -7.93271 -14.46742 1753 ft 138 kts 119°
2026-05-04 00:55 -7.93702 -14.45879 1553 ft 138 kts 119°
2026-05-04 00:56 -7.94139 -14.45005 1355 ft 140 kts 119°
2026-05-04 00:56 -7.94575 -14.44133 1156 ft 139 kts 119°
2026-05-04 00:56 -7.95012 -14.43259 958 ft 140 kts 119°
2026-05-04 00:56 -7.95448 -14.42387 759 ft 140 kts 120°
2026-05-04 00:57 -7.95887 -14.41511 561 ft 139 kts 120°
2026-05-04 00:57 -7.96302 -14.40678 349 ft 127 kts 119°
2026-05-04 00:57 -7.96674 -14.39945 286 ft 102 kts 118°
2026-05-04 00:57 -7.96927 -14.39433 272 ft 62 kts 116°
2026-05-04 00:58 -7.97065 -14.39150 263 ft 29 kts 114°
2026-05-04 00:58 -7.97118 -14.38991 259 ft 21 kts 105°
2026-05-04 00:58 -7.97126 -14.38860 256 ft 18 kts 86°
2026-05-04 00:58 -7.97119 -14.38727 255 ft 20 kts 89°
2026-05-04 00:59 -7.97160 -14.38597 254 ft 20 kts 119°
2026-05-04 00:59 -7.97275 -14.38594 252 ft 20 kts 206°
2026-05-04 00:59 -7.97295 -14.38703 253 ft 19 kts 298°
2026-05-04 00:59 -7.97231 -14.38826 255 ft 20 kts 296°
2026-05-04 01:00 -7.97168 -14.38953 257 ft 21 kts 296°
2026-05-04 01:00 -7.97104 -14.39081 260 ft 20 kts 297°
2026-05-04 01:00 -7.97041 -14.39208 264 ft 20 kts 296°
2026-05-04 01:00 -7.96979 -14.39331 269 ft 19 kts 297°
2026-05-04 01:01 -7.96926 -14.39437 272 ft 19 kts 296°
2026-05-04 01:01 -7.96868 -14.39554 276 ft 18 kts 297°
2026-05-04 01:01 -7.96811 -14.39667 280 ft 18 kts 296°
2026-05-04 01:01 -7.96756 -14.39779 283 ft 18 kts 296°
2026-05-04 01:02 -7.96706 -14.39895 285 ft 18 kts 268°
2026-05-04 01:02 -7.96810 -14.39967 282 ft 20 kts 205°
2026-05-04 01:02 -7.96922 -14.40066 279 ft 23 kts 232°
2026-05-04 01:02 -7.97022 -14.40203 275 ft 26 kts 256°
2026-05-04 01:03 -7.96963 -14.40374 272 ft 26 kts 297°
2026-05-04 01:03 -7.96861 -14.40490 269 ft 20 kts 10°
2026-05-04 01:03 -7.96757 -14.40439 273 ft 14 kts 28°
2026-05-04 01:03 -7.96730 -14.40383 276 ft 6 kts 96°
2026-05-04 01:04 -7.96732 -14.40360 277 ft 1 kts 92°
2026-05-04 01:04 -7.96730 -14.40356 277 ft 1 kts 62°
2026-05-04 01:04 -7.96723 -14.40344 277 ft 3 kts 61°
2026-05-04 01:04 -7.96720 -14.40338 278 ft 0 kts 63°